Powrót do katalogu

STARLINK-33771

AktywnyŁącznośćVLEO
NORAD 63659·PAYLOAD·🇺🇸 United States

Wystrzelony Apr 25, 2025 z Cape Canaveral Space Force Station

Loading…

Następne Przeloty (najbliższe 24 godziny)

TLE

ŚwieżeSource: CelesTrak SupGP

Epoka: Sep 15, 2026, 03:48 UTC

1 63659C 25083AB  26258.15881944  .00026911  00000+0  97456-3 0  2580
2 63659  43.0025  18.5829 0001602 262.4995 155.2731 15.27569918    12

Śledź STARLINK-33771 w czasie rzeczywistym z AllMySat

Download on the App Store